SCP
0 0 0 0 0 0 0 0 0 0 0 0 0 0 0 0 0 0 0 0 0 0 0 0 0 0 0 0 0 0 0 0 0 0 0 0 0 0 0 0 0 0 0 0 0 0 0 0 0
0 0 0 0 0 0 0 0 0 0 0 0 0 0 0 0 0 0 0 0 0 0 0 0 0 0 0 0 0 0 0 0 0 0 0 0 0 0 0 0 0 0 0 0 0 0 0 0 0
0 0 0 0 0 0 0 0 0 0 0 0 0 0 0 0 0 0 0 0 0 0 0 0 0 0 0 0 0 0 0 0 0 0 0 0 0 0 0 0 0 0 0 0 0 0 0 0 0
0 0 0 0 0 0 0 0 0 0 0 0 0 0 0 0 0 0 0 0 0 0 0 0 0 0 0 0 0 0 0 0 0 0 0 0 0 0 0 0 0 0 0 0 0 0 0 0 0
0 0 0 0 0 0 0 0 0 0 0 0 0 0 0 0 0 0 0 0 0 0 0 0 0 0 0 0 0 0 0 0 0 0 0 0 0 0 0 0 0 0 0 0 0 0 0 0 0
0 0 0 0 0 0 0 0 0 0 0 0 0 0 0 0 0 0 0 0 0 0 0 0 0 0 0 0 0 0 0 0 0 0 0 0 0 0 0 0 0 0 0 0 0 0 0 0 0
0 0 0 0 0 0 0 0 0 0 0 0 0 0 0 0 0 0 0 0 0 0 0 0 0 0 0 0 0 0 0 0 0 0 0 0 0 0 0 0 0 0 0 0 0 0 0 0 0
0 0 0 0 0 0 0 0 0 0 0 0 0 0 0 0 0 0 0 0 0 0 0 0 0 0 0 0 0 0 0 0 0 0 0 0 0 0 0 0 0 0 0 0 0 0 0 0 0
0 0 0 0 0 0 0 0 0 0 0 0 0 0 0 0 0 0 0 0 0 0 0 0 0 0 0 0 0 0 0 0 0 0 0 0 0 0 0 0 0 0 0 0 0 0 0 0 0
0 0 0 0 0 0 0 0 0 0 0 0 0 0 0 0 0 0 0 0 0 0 0 0 0 0 0 0 0 0 0 0 0 0 0 0 0 0 0 0 0 0 0 0 0 0 0 0 0
0 0 0 0 0 0 0 0 0 0 0 0 0 0 0 0 0 0 0 0 0 0 0 0 0 0 0 0 0 0 0 0 0 0 0 0 0 0 0 0 0 0 0 0 0 0 0 0 0
0 0 0 0 0 0 0 0 0 0 0 0 0 0 0 0 0 0 0 0 0 0 0 0 0 0 0 0 0 0 0 0 0 0 0 0 0 0 0 0 0 0 0 0 0 0 0 0 0
0 0 0 0 0 0 0 0 0 0 0 0 0 0 0 0 0 0 0 0 0 0 0 0 0 0 0 0 0 0 0 0 0 0 0 0 0 0 0 0 0 0 0 0 0 0 0 0 0
0 0 0 0 0 0 0 0 0 0 0 0 0 0 0 0 0 0 0 0 0 0 0 0 0 0 0 0 0 0 0 0 0 0 0 0 0 0 0 0 0 0 0 0 0 0 0 0 0
0 0 0 0 0 0 0 0 0 0 0 0 0 0 0 0 0 0 0 0 0 0 0 0 0 0 0 0 0 0 0 0 0 0 0 0 0 0 0 0 0 0 0 0 0 0 0 0 0
0 0 0 0 0 0 0 0 0 0 0 0 0 0 0 0 0 0 0 0 0 0 0 0 0 0 0 0 0 0 0 0 0 0 0 0 0 0 0 0 0 0 0 0 0 0 0 0 0
0 0 0 0 0 0 0 0 0 0 0 0 0 0 0 0 0 0 0 0 0 0 0 0 0 0 0 0 0 0 0 0 0 0 0 0 0 0 0 0 0 0 0 0 0 0 0 0 0
0 0 0 0 0 0 0 0 0 0 0 0 0 0 0 0 0 0 0 0 0 0 0 0 0 0 0 0 0 0 0 0 0 0 0 0 0 0 0 0 0 0 0 0 0 0 0 0 0
0 0 0 0 0 0 0 0 0 0 0 0 0 0 0 0 0 0 0 0 0 0 0 0 0 0 0 0 0 0 0 0 0 0 0 0 0 0 0 0 0 0 0 0 0 0 0 0 0
0 0 0 0 0 0 0 0 0 0 0 0 0 0 0 0 0 0 0 0 0 0 0 0 0 0 0 0 0 0 0 0 0 0 0 0 0 0 0 0 0 0 0 0 0 0 0 0 0
0 0 0 0 0 0 0 0 0 0 0 0 0 0 0 0 0 0 0 0 0 0 0 0 0 0 0 0 0 0 0 0 0 0 0 0 0 0 0 0 0 0 0 0 0 0 0 0 0
0 0 0 0 0 0 0 0 0 0 0 0 0 0 0 0 0 0 0 0 0 0 0 0 0 0 0 0 0 0 0 0 0 0 0 0 0 0 0 0 0 0 0 0 0 0 0 0 0
0 0 0 0 0 0 0 0 0 0 0 0 0 0 0 0 0 0 0 0 0 0 0 0 0 0 0 0 0 0 0 0 0 0 0 0 0 0 0 0 0 0 0 0 0 0 0 0 0
0 0 0 0 0 0 0 0 0 0 0 0 0 0 0 0 0 0 0 0 0 0 0 0 0 0 0 0 0 0 0 0 0 0 0 0 0 0 0 0 0 0 0 0 0 0 0 0 0
0 0 0 0 0 0 0 0 0 0 0 0 0 0 0 0 0 0 0 0 0 0 0 0 0 0 0 0 0 0 0 0 0 0 0 0 0 0 0 0 0 0 0 0 0 0 0 0 0
0 0 0 0 0 0 0 0 0 0 0 0 0 0 0 0 0 0 0 0 0 0 0 0 0 0 0 0 0 0 0 0 0 0 0 0 0 0 0 0 0 0 0 0 0 0 0 0 0
0 0 0 0 0 0 0 0 0 0 0 0 0 0 0 0 0 0 0 0 0 0 0 0 0 0 0 0 0 0 0 0 0 0 0 0 0 0 0 0 0 0 0 0 0 0 0 0 0
0 0 0 0 0 0 0 0 0 0 0 0 0 0 0 0 0 0 0 0 0 0 0 0 0 0 0 0 0 0 0 0 0 0 0 0 0 0 0 0 0 0 0 0 0 0 0 0 0
0 0 0 0 0 0 0 0 0 0 0 0 0 0 0 0 0 0 0 0 0 0 0 0 0 0 0 0 0 0 0 0 0 0 0 0 0 0 0 0 0 0 0 0 0 0 0 0 0
0 0 0 0 0 0 0 0 0 0 0 0 0 0 0 0 0 0 0 0 0 0 0 0 0 0 0 0 0 0 0 0 0 0 0 0 0 0 0 0 0 0 0 0 0 0 0 0 0
Wind_Speed
4 2 2 2 2 3 7 5 4 4 4 6 6 5 6 7 6 6 4 3 3 4 4 4 4 5 5 5 5 5 5 6 6 7 7 6 6 5 5 4 5 6 6 6 7 7 8 8 8
1 1 2 2 1 4 6 5 6 6 6 4 5 5 5 7 6 5 4 3 3 4 4 5 5 5 5 5 5 5 5 6 6 6 7 7 7 6 5 6 6 7 6 7 7 8 8 9 9
2 1 2 0 3 5 6 5 6 6 4 2 3 4 4 5 4 4 4 3 3 4 4 6 5 4 5 5 5 6 5 5 6 6 7 7 7 7 7 7 7 6 6 7 7 8 8 8 9
2 2 1 3 9 8 6 5 4 5 4 3 3 5 5 5 3 4 4 3 3 4 4 6 4 5 5 5 6 6 6 5 6 6 6 7 8 8 8 8 7 7 7 7 7 8 8 8 8
1 1 3 6 8 6 5 4 3 3 4 4 3 5 6 5 4 4 4 3 3 4 4 5 5 4 5 5 5 6 6 5 6 6 6 8 8 8 9 8 8 8 8 8 8 8 8 9 8
1 1 3 6 7 6 5 4 4 4 5 5 4 5 6 5 4 4 3 3 4 4 4 5 6 5 5 5 6 6 5 6 6 6 7 7 7 8 8 8 8 8 8 8 8 8 8 8 8
1 1 4 7 6 5 4 3 3 3 4 4 3 4 6 5 4 4 4 4 4 4 4 4 4 6 6 6 6 6 6 6 6 7 8 8 7 7 8 8 8 8 8 8 8 9 8 8 8
1 2 5 5 5 5 5 4 3 2 5 4 1 2 5 5 4 4 4 3 4 4 4 4 4 4 4 5 6 6 6 6 7 7 7 6 5 6 6 7 8 8 8 8 9 9 9 8 8
2 2 4 4 3 4 5 4 3 2 4 4 3 4 5 6 6 5 4 4 4 4 4 4 4 4 4 4 5 4 5 5 3 5 5 1 3 4 4 8 8 8 8 9 9 9 8 7 7
1 3 5 3 3 4 4 2 3 4 3 4 4 5 5 6 6 5 4 4 5 4 4 4 4 4 4 3 3 3 3 4 3 4 4 3 4 4 4 9 8 8 8 8 8 7 5 2 4
2 5 5 4 4 4 4 3 2 2 2 1 3 5 6 6 5 4 4 4 4 4 4 4 4 4 4 3 3 2 2 3 3 4 4 3 3 3 3 3 5 5 5 5 5 3 3 4 4
5 5 3 4 4 4 3 3 2 1 2 2 3 5 6 6 4 3 3 3 4 4 4 4 4 4 4 4 3 2 2 2 3 3 4 3 2 3 3 2 3 3 3 4 3 3 5 5 5
5 4 4 4 4 3 3 2 1 1 1 3 4 5 5 4 4 4 3 3 3 3 3 3 3 4 4 4 2 3 3 3 3 3 3 4 2 2 3 3 3 3 3 3 3 3 5 5 5
3 3 2 2 3 3 3 2 2 1 3 4 5 5 5 4 4 4 4 3 3 3 3 3 3 3 3 3 3 4 3 3 3 3 3 4 3 3 3 3 3 3 3 3 3 4 4 4 4
4 3 3 3 3 3 3 2 3 2 4 5 5 5 4 4 4 4 4 3 3 3 3 3 2 2 3 4 4 3 3 3 3 3 3 4 4 3 3 3 3 3 3 3 3 4 4 4 4
4 3 2 2 2 3 5 1 2 3 5 5 5 5 5 5 5 4 4 3 3 2 3 3 2 2 3 3 3 3 3 3 3 3 3 4 3 3 3 2 3 3 2 2 2 2 3 4 4
3 2 1 1 2 3 5 3 0 3 5 6 6 6 6 6 6 5 5 4 3 3 3 4 3 3 3 3 3 3 3 3 3 3 3 3 4 3 3 3 2 3 2 2 2 3 3 4 4
1 1 2 2 1 4 5 5 2 3 6 6 6 6 6 6 5 5 5 4 3 3 3 4 4 3 3 2 2 2 2 2 2 2 3 3 3 3 3 2 3 2 2 2 3 4 3 3 3
3 4 4 3 0 3 5 6 4 3 5 6 6 7 6 6 6 5 5 5 5 4 4 4 4 4 3 2 1 1 1 1 2 2 3 2 2 2 3 2 2 2 2 2 3 3 4 3 2
5 5 4 2 1 4 5 6 3 3 5 6 6 6 7 6 6 6 6 6 5 5 4 4 4 3 3 2 1 1 1 1 2 1 2 2 2 2 2 2 2 2 2 2 2 2 1 2 0
5 5 5 5 3 4 6 4 2 2 3 4 5 6 6 6 7 7 7 7 6 5 5 4 4 4 3 3 2 2 2 2 2 2 1 1 1 2 2 2 2 2 2 2 1 2 1 1 1
4 2 4 5 6 3 4 4 1 1 2 4 4 5 5 6 6 6 7 7 6 5 5 5 4 4 4 3 2 2 1 1 1 1 1 2 1 1 1 2 2 2 1 2 1 1 1 1 1
2 0 3 5 7 6 4 5 1 1 1 1 2 3 4 5 6 7 7 6 6 6 5 4 4 4 4 3 3 2 1 1 1 1 2 2 2 1 2 1 2 2 1 2 1 1 1 1 1
2 4 4 5 6 6 2 5 1 1 1 1 1 2 3 4 5 6 6 6 6 5 5 5 5 4 4 4 4 3 2 2 2 2 2 2 2 2 2 2 2 2 2 2 2 2 2 1 1
5 5 4 4 4 1 1 5 2 2 1 2 1 1 2 4 5 6 6 7 7 7 6 6 5 5 5 5 4 4 3 3 3 2 2 2 2 2 3 3 3 2 3 3 2 3 2 3 2
5 6 5 4 3 2 3 4 1 2 1 1 1 2 2 3 4 5 6 6 7 7 7 6 6 5 5 5 5 4 4 3 2 3 2 3 2 2 2 3 3 3 3 3 3 3 3 3 3
4 5 4 6 5 5 3 2 2 2 1 2 2 2 2 2 3 4 5 6 7 7 7 7 6 5 5 5 5 4 4 4 3 4 3 2 2 2 3 3 4 4 4 4 3 3 3 3 3
4 2 4 5 5 5 3 4 2 1 1 1 1 1 1 2 3 3 4 5 6 6 6 6 6 6 6 5 4 3 4 4 4 4 4 3 3 2 3 4 4 4 4 4 3 3 3 3 3
5 5 6 5 5 6 5 1 2 2 2 1 1 0 1 2 3 3 4 5 5 6 6 6 6 6 5 5 5 4 4 4 4 4 4 4 3 3 4 4 3 4 4 4 4 4 4 4 4
5 7 8 7 6 6 7 3 2 1 2 2 2 1 1 2 2 3 3 4 5 6 6 6 6 6 5 5 4 4 4 4 4 4 4 4 4 4 4 4 4 3 4 4 4 5 5 5 4
Wind_Direction
163 172 222 242 214 94 74 70 66 75 67 60 55 55 55 44 31 59 76 50 36 41 43 68 45 33 34 34 38 43 44 48 51 55 57 51 50 55 65 90 89 90 87 89 93 95 95 93 89
151 199 234 250 249 104 84 79 74 63 83 96 75 67 71 69 56 77 90 67 46 48 46 46 39 34 38 40 45 52 51 49 51 55 56 52 56 58 66 83 89 90 90 90 91 93 94 91 88
145 260 293 304 66 71 94 90 85 87 92 86 84 61 48 64 72 81 76 85 71 55 47 59 34 39 44 47 52 56 56 55 58 58 57 54 59 58 67 83 89 90 91 92 93 93 94 91 87
226 207 180 84 85 74 88 105 110 118 103 78 94 92 82 60 55 74 94 91 75 66 55 68 42 43 48 49 53 56 54 52 57 59 56 57 61 63 65 75 83 88 87 89 90 90 92 90 86
242 244 112 99 89 88 86 91 111 101 94 90 92 97 93 85 85 95 104 90 70 63 59 67 58 46 49 50 51 51 53 51 57 59 57 62 65 67 68 71 76 80 83 87 86 87 89 87 83
213 202 117 101 100 104 103 107 113 97 99 107 109 105 94 104 108 102 101 85 67 62 57 69 91 71 56 52 52 50 51 55 59 60 61 63 67 70 73 75 78 84 84 81 82 85 84 83 80
13 78 93 107 112 113 108 110 100 93 97 91 103 104 108 112 103 113 106 91 74 65 62 60 72 95 99 74 56 54 53 54 55 58 64 66 67 71 75 76 79 85 87 84 85 85 84 82 78
355 128 116 113 115 103 118 121 93 70 81 86 121 96 105 118 125 124 116 103 86 75 68 63 65 60 72 94 82 65 62 59 63 65 64 70 87 89 87 88 83 85 87 87 85 84 82 81 77
238 158 109 112 123 116 136 138 116 102 109 110 88 61 80 121 143 139 133 121 96 77 67 59 61 60 55 63 81 89 93 80 92 99 91 98 83 84 95 78 77 82 84 84 83 81 82 86 87
182 91 83 94 119 128 139 134 134 150 132 126 122 115 122 142 149 145 131 114 99 86 75 62 56 57 60 58 70 66 77 79 62 64 70 65 68 71 74 90 85 84 88 93 87 91 104 100 88
79 83 99 115 124 134 140 135 152 168 106 114 137 139 145 151 148 142 127 107 94 88 78 66 58 59 61 68 63 60 64 68 65 63 69 68 78 93 85 99 111 105 104 93 101 104 74 70 66
105 98 106 114 133 152 144 137 134 140 47 68 129 144 153 155 153 150 136 121 115 98 80 69 54 61 65 67 68 62 67 68 65 58 60 65 66 72 78 83 84 87 83 78 72 72 76 71 72
115 107 108 125 146 154 146 155 144 148 122 130 140 152 162 164 158 147 144 144 136 120 107 83 61 58 65 68 66 73 64 57 70 59 53 66 70 76 85 82 76 76 78 85 80 76 78 75 67
105 118 128 146 158 163 172 185 204 159 158 156 161 168 171 175 174 162 162 162 149 141 123 114 95 83 78 81 75 71 68 74 63 65 60 70 77 79 79 79 79 76 74 73 83 87 87 82 78
144 153 149 160 180 172 206 206 195 173 178 175 176 175 176 181 181 181 168 171 160 146 136 116 97 98 90 81 70 68 65 69 70 68 56 68 69 79 86 79 85 85 86 84 78 91 94 94 91
182 200 172 142 192 195 237 258 115 164 192 191 186 178 182 184 190 186 179 179 171 168 140 128 139 120 104 97 89 78 74 75 73 72 63 67 76 78 81 85 91 92 84 84 87 97 101 96 88
203 223 246 165 188 210 233 273 153 178 206 206 198 193 189 182 190 187 188 187 183 180 155 146 148 134 118 110 102 81 78 75 73 73 71 65 67 74 84 83 86 95 95 91 89 87 88 93 87
214 260 282 295 137 231 249 268 261 199 215 216 208 202 195 191 189 185 185 187 190 186 170 151 150 156 132 135 123 109 84 79 71 66 73 65 64 75 84 98 96 92 96 88 87 89 89 88 92
273 275 292 312 297 256 269 281 280 220 214 221 214 205 200 195 184 176 177 181 184 183 182 164 172 161 153 150 156 128 108 97 86 73 78 84 75 85 87 88 96 89 94 92 93 94 100 96 94
243 263 285 300 255 264 283 287 276 237 225 228 226 214 202 196 187 176 181 180 187 180 180 169 165 162 151 144 143 132 116 105 97 101 99 94 90 83 97 107 108 113 107 107 103 108 109 101 58
245 269 295 303 290 243 273 260 217 192 208 221 229 227 216 205 201 183 186 183 183 185 182 182 171 159 154 153 154 156 147 167 155 137 117 97 99 99 105 105 111 120 132 120 131 146 161 146 111
252 278 276 278 277 278 279 291 180 181 203 206 215 216 214 205 204 192 188 187 185 184 183 184 170 161 157 161 174 178 191 159 140 131 135 137 128 134 134 138 139 135 131 135 160 155 170 187 154
292 271 252 264 271 271 245 270 140 162 213 198 195 206 208 201 200 193 192 191 187 177 178 183 172 170 170 176 174 212 203 168 156 168 159 157 137 162 163 174 174 168 168 172 163 158 184 195 201
194 208 213 228 249 253 247 272 275 124 330 338 170 182 190 192 192 194 188 187 184 177 177 180 183 180 182 197 198 210 203 207 203 206 183 179 164 179 183 189 193 200 199 194 189 191 194 215 218
221 253 250 225 222 243 97 265 281 41 356 320 290 192 169 177 187 191 190 190 186 184 185 186 192 191 192 202 210 207 214 228 228 227 206 213 189 184 195 202 209 213 212 206 210 213 212 212 221
226 257 277 292 293 296 229 254 27 57 333 293 246 190 166 167 188 191 192 192 189 189 190 195 198 198 196 207 212 215 209 228 237 243 242 233 233 213 207 213 217 218 223 215 211 232 228 231 223
224 233 288 287 281 273 239 238 234 177 180 171 162 153 161 173 183 191 189 192 191 192 194 198 197 199 201 210 210 214 219 228 239 244 245 240 239 228 219 211 215 215 214 221 218 226 229 237 239
281 243 223 251 276 271 256 248 234 200 218 201 183 143 149 166 180 182 189 194 195 194 195 200 203 203 203 210 210 218 234 232 240 241 237 236 232 223 222 216 211 208 207 209 213 226 235 233 230
190 207 240 252 268 281 283 274 42 316 308 288 288 263 206 189 187 184 188 188 191 191 195 199 203 207 207 211 214 217 226 236 237 236 238 239 235 222 218 215 207 203 202 202 200 217 220 227 225
255 251 242 253 250 259 279 288 87 276 300 290 290 268 220 200 188 180 181 177 186 194 196 198 203 207 211 213 217 223 228 233 236 233 231 229 227 223 217 212 210 210 210 207 205 211 218 223 228